Погода Баку

Погода Баку : погода сейчас, прогноз погоды и архив. Всё, что Вы хотите узнать о погоде Баку!

Поиск расширенной информации на нашем сайте:

Другие новости

Новости СМИ2

Главная страница сайта

Новости сайта

02.10.2013

Напоминаем, что на нашем новом сайте вы можете получить высокодетализированные прогнозы погоды по пунктам России, СНГ и мира (включающие важные для авиации метеовеличины, такие как направление и скорость ветра, видимость, явления погоды, количество и форма облачности, нижняя и верхняя граница облачности), а также ознакомиться с разнообразными материалами по авиационной метеорологии и подборкой полезных ссылок на эту тему.

Сайт Метеоцентр.Азия посвящён разработке технологий оптимизации авиаметеорологического обслуживания, включая проектирование и перспективное создание нескольких автоматизированных авиаметеорологических систем:
- система выпуска высокодетальных прогностических карт явлений погоды для нижнего воздушного пространства по России и ближнему зарубежью;
- система верификации прогнозов TAF (выпускаемых синоптиками официальных АМСГ РФ и ближнего зарубежья) и AUTOTAF (выпускаемых сайтом Метеоцентр.Азия) - выявление ошибок, онлайн-сопоставление с фактической погодой METAR, автоматическое внесение коррективов в прогнозы при резком отклонении фактической погоды от прогноза, подсчёт оправдываемости прогнозов по элементам и в целом;
- система обработки, анализа и отображения авиаметеорологической информации для применения провайдерами метеорологической информации.


Погода Баку - сегодня

Время (UTC), дата Ветер
(°,м/с) 
Видим.   Явления Облачность Т
(°С)
Тd
(°С)
f(%) Тe
(°С)
Pmin
(гПа)
dP
(гПа)
Po
(мм)
O2
(г/м3)
Тmin Tmax R s Состояние
почвы
00 24.05.17 320 (СЗ) 10 км    10/0 средняя 
[Ac As]
+16.2 +11.5 74 +18  1011.5  -1.1  759  286           
03 24.05.17 320 (СЗ) 10 км    10/0 средняя 
[Ac As]
+17.2 +11.5 69 +20  1011.5  759  285           
06 24.05.17 290 (З) 10 км    ясно средняя 
[Ac As]
+19.7 +13.4 67 +26  1013.6  2.1  760  282           
09 24.05.17 330 (СЗ) 10 км    ясно 
+21.2 +13.2 60 +27  1011.4  -2.2  759  281           
12 24.05.17 340 (С) 10 км    ясно 
+20.3 +12.3 60 +24  1011.4  759  282           
15 24.05.17 320 (СЗ) 10 км    8/0 средняя 
[Ac As]
+18.1 +11.8 67 +21  1011.4  759  284           
18 24.05.17 320 (СЗ) 10 км    8/0 средняя 
[Ac As]
+16.8 +10.9 68 +19  1013.8  2.4  760  286    +21.9       
21 24.05.17 270 (З) 10 км    10/0 средняя 
[Ac As]
+16.8 +12 73 +20  1014.4  0.6  761  286           
00 25.05.17 320 (СЗ) 10 км    10/0 средняя 
[Ac As]
+15.4 +12 80 +18  1014  -0.4  761  287           
03 25.05.17 280 (З) 10 км    8/0 средняя 
[Ac As]
+15.6 +11.5 77 +18  1016.1  2.1  762  288           
06 25.05.17 300 (СЗ) 10 км    8/0 средняя 
[Ac As]
+18.8 +9.8 56 +20  1016.9  0.8  763  285           
09 25.05.17 300 (СЗ) 10 км    ясно 
+20.3 +9.9 51 +21  1016.3  -0.3  762  283           
12 25.05.17 340 (С) 10 км    ясно 
+20.4 +10 51 +21  1015.9  -0.4  762  283           
15 25.05.17 330 (СЗ) 10 км    ясно 
+17.1 +10.4 65 +18  1016.6  0.7  763  287           
18 25.05.17 340 (С) 10 км    ясно 
+16.4 +10.7 69 +18  1018.2  1.6  764  288    +21.3       
21 25.05.17 тихо ()   10 км    ясно 
+16.7 +10.3 66 +18  1017.8  -0.4  763  287           
00 26.05.17 330 (СЗ) 10 км    ясно 
+16.3 +11.3 72 +20  1017.2  -0.6  763  287           
03 26.05.17 350 (С) 10 км    ясно 
+17.9 +11.1 64 +21  1017.7  0.5  763  286           
06 26.05.17 340 (С) 10 км    10/0 средняя 
[Ac As]
+19.5 +10.9 58 +23  1018  0.3  764  285           
09 26.05.17 010 (С) 10 км    10/0 средняя 
[Ac As]
+23.4 +11.5 47 +26  1016.8  -1.2  763  280           
12 26.05.17 110 (В) 10 км    10/0 средняя 
[Ac As]
+22.2 +11.4 50 +25  1015.4  1.4  762  281           
15 26.05.17 100 (В) 10 км    ясно 
+19.4 +11.2 59 +23  1014.8  -0.6  761  284           
18 26.05.17 тихо ()   10 км    ясно 
+16.2 +13.8 86 +23  1015.8  762  286    +23.8       
21 26.05.17 290 (З) 10 км    ясно 
+14.2 +12.6 90 +20  1014.3  -1.5  761  288           
00 27.05.17 тихо ()   10 км    8/0 средняя 
[Ac As]
+14.5 +13.1 91 +20  1012.9  -1.4  760  287           
Время (UTC), дата Ветер
(°,м/с) 
Видим.   Явления Облачность Т
(°С)
Тd
(°С)
f(%) Тe
(°С)
Pmin
(гПа)
dP
(гПа)
Po
(мм)
O2
(г/м3)
Тmin Tmax R s Состояние
почвы

Для получения пояснительной информации подведите курсор к названию столбца.

ПОГОДА Баку - архив

Всё, что Вы хотите узнать о погоде Баку - удобно и подробно!

Выберите нужную дату (начиная с 1 января 2015* года) и нажмите кнопку "Найти".
Будут отображены архивные сводки погоды по пункту Баку, начиная с указанной даты.


Отображать данные в формате CSV (для использования в таблицах Excel)


Внимание! Наш архив погоды предназначен исключительно для личного некоммерческого использования в познавательных целях. Если Вам необходимы официальные справки о состоянии погоды (для производственных, юридических, коммерческих и т.п. целей), обращайтесь в органы Росгидромета.

*Примечание: данная дата относится к архиву по метеостанциям СССР (Россия, СНГ, Балтия).
Архив по метеостанциям Зарубежной Европы и Азии (кроме Китая) хранится 10 дней, по другим регионам земного шара (Китай, Африка, Америка, Австралия, Океания) - 1 день.

Баку - район местоположения метеостанции


Название, широта, долгота, высота метеостанции:
Баку (Гейдар Алиев) 40.4°ш. 50.1°д. -1 м над ур. моря [Азербайджан]

Дополнительная информация

В oтличие oт бoльшинства пoгoдных сайтoв мы публикуем пoдрoбную метеoинфoрмацию в детальнoм прoфессиoнальнoм фoрмате.

Характеристики температуры и влажнoсти вoздуха измеряются на высoте 2 м в тени вдали oт зданий и деревьев.
Скoрoсть ветра измеряется на высoте 10 м (на урoвне рoста челoвека скoрoсть ветра ниже в 1.5-2 раза). Если метеoстанция нахoдится в гoрoде или в лесу, тo скoрoсть ветра занижена на 2-4 м/с пo сравнению с oткрытым местoм. Скoрoсть ветра над акватoриями крупных рек и oзёр, а также на вершинах хoлмoв на 2-5 м/с выше, чем в oбычных услoвиях.
Атмoсфернoе давление в разных тoчках местнoсти мoжет значительнo oтличаться oт давления на метеoстанции, в зависимoсти oт услoвий рельефа (при пoдъёме на 10 м давление пoнижается примернo на 1 мм рт.ст.).